Location: Meanaryar
(48.4161°N, 4.7315°W)
Time: 07:03:44
(UTC+00:00)

SL-14 R/B - Pass Details

Date: 18 September 2020
Orbit: 519 x 554 km, 82.4° (Epoch: 23 October)

Event Time Altitude Azimuth Distance (km) Brightness Sun altitude
Rises 20:46:37 0° 353° (N) 2,672 7.4 -23.2°
Reaches altitude 10° 20:48:47 10° 357° (N) 1,783 6.3 -23.5°
Enters shadow 20:51:28 40° 17° (NNE) 800 4.2 -23.9°
